When you browse on this site, cookies collect data to enhance your experience and personalize the content and advertising you see.
Visit our Privacy Policy to learn more. By continuing to use the site, you agree to this use of cookies and data.
  • în România
  • Lista ţărilor
  • Pe 7 zile
  • Temperatura apei
  • Hartă satelitară
  • Meteo pe hartă
  • Widget-uri
  • user-avatar
    Intrare

    Meteo pe oră la Barra

    Astăzi, 18 Noiembrie, Duminică

    Timp Temperatura Precipitaţii Vânt Presiune Umiditate
    00:00 +22°C° 0 mm 1 m/s 748 mmHg 88%
    01:00 +22°C° 0 mm 1 m/s 748 mmHg 90%
    02:00 +22°C° 0 mm 1 m/s 748 mmHg 91%
    03:00 +21°C° 0 mm 1 m/s 747 mmHg 92%
    04:00 +21°C° 0 mm 1 m/s 747 mmHg 94%
    05:00 +22°C° 0 mm 1 m/s 747 mmHg 89%
    06:00 +23°C° 0 mm 1 m/s 748 mmHg 83%
    07:00 +25°C° 0 mm 1 m/s 748 mmHg 78%
    08:00 +27°C° 0 mm 2 m/s 748 mmHg 68%
    09:00 +29°C° 0 mm 2 m/s 748 mmHg 58%
    10:00 +31°C° 0 mm 3 m/s 748 mmHg 52%
    11:00 +33°C° 0 mm 3 m/s 748 mmHg 49%
    12:00 +33°C° 0 mm 3 m/s 748 mmHg 46%
    13:00 +34°C° 0 mm 4 m/s 747 mmHg 43%
    14:00 +34°C° 0 mm 4 m/s 747 mmHg 45%
    15:00 +33°C° 0 mm 4 m/s 747 mmHg 46%
    16:00 +31°C° 0 mm 3 m/s 747 mmHg 47%
    17:00 +30°C° 0 mm 3 m/s 747 mmHg 56%
    18:00 +28°C° 0 mm 2 m/s 747 mmHg 64%
    19:00 +26°C° 0 mm 2 m/s 748 mmHg 73%
    20:00 +25°C° 0 mm 2 m/s 748 mmHg 77%
    21:00 +24°C° 0 mm 2 m/s 748 mmHg 82%
    22:00 +24°C° 0 mm 2 m/s 749 mmHg 86%
    23:00 +23°C° 0 mm 2 m/s 749 mmHg 87%

    Mâine, 19 Noiembrie, Luni

    Timp Temperatura Precipitaţii Vânt Presiune Umiditate
    00:00 +23°C° 0 mm 2 m/s 748 mmHg 89%
    01:00 +23°C° 0 mm 2 m/s 748 mmHg 90%
    02:00 +23°C° 0 mm 2 m/s 748 mmHg 91%
    03:00 +23°C° 0 mm 2 m/s 748 mmHg 91%
    04:00 +21°C° 0 mm 2 m/s 748 mmHg 92%
    05:00 +24°C° 0 mm 2 m/s 748 mmHg 86%
    06:00 +25°C° 0 mm 3 m/s 748 mmHg 80%
    07:00 +26°C° 0 mm 3 m/s 749 mmHg 75%
    08:00 +27°C° 0 mm 3 m/s 749 mmHg 67%
    09:00 +29°C° 0 mm 3 m/s 749 mmHg 60%
    10:00 +30°C° 0 mm 4 m/s 749 mmHg 53%
    11:00 +32°C° 0 mm 4 m/s 748 mmHg 50%
    12:00 +33°C° 0 mm 4 m/s 748 mmHg 46%
    13:00 +34°C° 0 mm 4 m/s 747 mmHg 43%
    14:00 +34°C° 0 mm 4 m/s 747 mmHg 45%
    15:00 +33°C° 0 mm 3 m/s 747 mmHg 47%
    16:00 +33°C° 0 mm 3 m/s 746 mmHg 49%
    17:00 +30°C° 0 mm 3 m/s 747 mmHg 57%
    18:00 +28°C° 0 mm 3 m/s 747 mmHg 66%
    19:00 +26°C° 0 mm 2 m/s 748 mmHg 74%
    20:00 +25°C° 0 mm 2 m/s 748 mmHg 78%
    21:00 +25°C° 0 mm 2 m/s 748 mmHg 82%
    22:00 +24°C° 0 mm 3 m/s 749 mmHg 86%
    23:00 +24°C° 0.1 mm 3 m/s 749 mmHg 86%

    Poimâine, 20 Noiembrie, Marţi

    Timp Temperatura Precipitaţii Vânt Presiune Umiditate
    00:00 +24°C° 0.1 mm 3 m/s 748 mmHg 87%
    01:00 +24°C° 0.1 mm 3 m/s 748 mmHg 88%
    02:00 +24°C° 0.1 mm 3 m/s 748 mmHg 88%
    03:00 +24°C° 0.1 mm 3 m/s 747 mmHg 88%
    04:00 +24°C° 0.1 mm 3 m/s 747 mmHg 88%
    05:00 +25°C° 0 mm 3 m/s 748 mmHg 85%
    06:00 +26°C° 0 mm 3 m/s 748 mmHg 82%
    07:00 +26°C° 0 mm 3 m/s 748 mmHg 79%
    08:00 +28°C° 0.1 mm 3 m/s 748 mmHg 72%
    09:00 +29°C° 0.1 mm 3 m/s 749 mmHg 66%
    10:00 +30°C° 0.1 mm 3 m/s 749 mmHg 59%
    11:00 +32°C° 0 mm 4 m/s 748 mmHg 55%
    12:00 +33°C° 0 mm 4 m/s 748 mmHg 51%
    13:00 +34°C° 0 mm 4 m/s 747 mmHg 46%
    14:00 +34°C° 0 mm 4 m/s 747 mmHg 48%
    15:00 +33°C° 0 mm 4 m/s 746 mmHg 50%
    16:00 +33°C° 0 mm 3 m/s 746 mmHg 52%
    17:00 +30°C° 0 mm 3 m/s 746 mmHg 60%
    18:00 +28°C° 0 mm 3 m/s 746 mmHg 68%
    19:00 +26°C° 0 mm 2 m/s 747 mmHg 76%
    20:00 +26°C° 0 mm 2 m/s 747 mmHg 80%
    21:00 +25°C° 0 mm 2 m/s 748 mmHg 85%
    22:00 +24°C° 0 mm 2 m/s 748 mmHg 89%
    23:00 +24°C° 0 mm 2 m/s 748 mmHg 90%

    21 Noiembrie, Miercuri

    Timp Temperatura Precipitaţii Vânt Presiune Umiditate
    00:00 +24°C° 0 mm 2 m/s 747 mmHg 91%
    01:00 +24°C° 0 mm 2 m/s 747 mmHg 92%
    02:00 +24°C° 0 mm 2 m/s 747 mmHg 92%
    03:00 +24°C° 0 mm 2 m/s 747 mmHg 91%
    04:00 +24°C° 0 mm 2 m/s 746 mmHg 91%
    05:00 +25°C° 0 mm 2 m/s 747 mmHg 87%
    06:00 +26°C° 0 mm 2 m/s 748 mmHg 83%
    07:00 +27°C° 0 mm 2 m/s 748 mmHg 79%
    08:00 +29°C° 0 mm 2 m/s 748 mmHg 69%
    09:00 +31°C° 0 mm 2 m/s 748 mmHg 59%
    10:00 +34°C° 0 mm 3 m/s 748 mmHg 50%
    11:00 +35°C° 0 mm 3 m/s 748 mmHg 47%
    12:00 +36°C° 0 mm 3 m/s 747 mmHg 45%
    13:00 +37°C° 0 mm 3 m/s 746 mmHg 42%
    14:00 +36°C° 0 mm 4 m/s 746 mmHg 45%
    15:00 +35°C° 0 mm 4 m/s 745 mmHg 48%
    16:00 +34°C° 0 mm 4 m/s 745 mmHg 51%
    17:00 +32°C° 0 mm 4 m/s 745 mmHg 59%
    18:00 +29°C° 0 mm 4 m/s 745 mmHg 67%
    19:00 +27°C° 0 mm 3 m/s 746 mmHg 76%
    20:00 +27°C° 0 mm 3 m/s 746 mmHg 79%
    21:00 +26°C° 0 mm 3 m/s 747 mmHg 83%
    22:00 +25°C° 0 mm 3 m/s 747 mmHg 86%
    23:00 +25°C° 0 mm 3 m/s 747 mmHg 88%

    22 Noiembrie, Joi

    Timp Temperatura Precipitaţii Vânt Presiune Umiditate
    00:00 +25°C° 0 mm 3 m/s 746 mmHg 89%
    01:00 +25°C° 0 mm 3 m/s 746 mmHg 90%
    02:00 +25°C° 0 mm 3 m/s 746 mmHg 90%
    03:00 +25°C° 0 mm 2 m/s 746 mmHg 91%
    04:00 +24°C° 0 mm 2 m/s 746 mmHg 91%
    05:00 +26°C° 0 mm 2 m/s 746 mmHg 85%
    06:00 +27°C° 0 mm 2 m/s 747 mmHg 79%
    07:00 +28°C° 0 mm 2 m/s 747 mmHg 72%
    08:00 +31°C° 0 mm 3 m/s 747 mmHg 62%
    09:00 +35°C° 0 mm 3 m/s 747 mmHg 51%
    10:00 +37°C° 0 mm 3 m/s 748 mmHg 40%
    11:00 +38°C° 0 mm 3 m/s 747 mmHg 40%
    12:00 +38°C° 0 mm 4 m/s 746 mmHg 40%
    13:00 +38°C° 0 mm 4 m/s 746 mmHg 40%
    14:00 +36°C° 0 mm 4 m/s 746 mmHg 48%
    15:00 +34°C° 0 mm 4 m/s 745 mmHg 56%
    16:00 +33°C° 0 mm 4 m/s 745 mmHg 64%
    17:00 +31°C° 0.1 mm 3 m/s 745 mmHg 69%
    18:00 +30°C° 0.1 mm 3 m/s 746 mmHg 74%
    19:00 +29°C° 0.1 mm 3 m/s 746 mmHg 78%
    20:00 +28°C° 0 mm 3 m/s 746 mmHg 81%
    21:00 +28°C° 0 mm 3 m/s 747 mmHg 83%
    22:00 +28°C° 0 mm 3 m/s 747 mmHg 85%
    23:00 +27°C° 0.3 mm 3 m/s 747 mmHg 86%

    23 Noiembrie, Vineri

    Timp Temperatura Precipitaţii Vânt Presiune Umiditate
    00:00 +27°C° 0.3 mm 2 m/s 747 mmHg 86%
    01:00 +27°C° 0.3 mm 2 m/s 746 mmHg 87%
    02:00 +27°C° 0.6 mm 2 m/s 746 mmHg 87%
    03:00 +26°C° 0.6 mm 2 m/s 746 mmHg 86%
    04:00 +26°C° 0.6 mm 2 m/s 746 mmHg 86%
    05:00 +27°C° 0.3 mm 2 m/s 746 mmHg 81%
    06:00 +29°C° 0.3 mm 2 m/s 747 mmHg 76%
    07:00 +30°C° 0.3 mm 1 m/s 748 mmHg 71%
    08:00 +32°C° 0 mm 1 m/s 748 mmHg 61%
    09:00 +35°C° 0 mm 1 m/s 748 mmHg 51%
    10:00 +37°C° 0 mm 1 m/s 748 mmHg 41%
    11:00 +38°C° 0 mm 2 m/s 747 mmHg 41%
    12:00 +38°C° 0 mm 2 m/s 747 mmHg 41%
    13:00 +38°C° 0 mm 3 m/s 746 mmHg 42%
    14:00 +37°C° 0 mm 3 m/s 746 mmHg 44%
    15:00 +37°C° 0 mm 3 m/s 746 mmHg 47%
    16:00 +36°C° 0 mm 3 m/s 745 mmHg 49%
    17:00 +34°C° 0 mm 3 m/s 746 mmHg 57%
    18:00 +33°C° 0 mm 3 m/s 746 mmHg 65%
    19:00 +30°C° 0 mm 3 m/s 747 mmHg 72%
    20:00 +29°C° 0 mm 3 m/s 747 mmHg 78%
    21:00 +28°C° 0 mm 3 m/s 747 mmHg 83%
    22:00 +28°C° 0 mm 3 m/s 748 mmHg 88%
    23:00 +27°C° 0 mm 3 m/s 747 mmHg 89%
    Arată mai mult